FW4250 Weather Reports


Display with metric or nautical units.
time (UTC)temp
F
wind
direction
speed
MPH
gust
MPH
rain 1hr
in
rain 24hr
in
rain mn
in
humidity
%
barometer
mb
20260505111550 49 215 0.0 0.0 0.00 0.00 0.00 89 986.8
20260505111050 49 215 0.0 0.0 0.00 0.00 0.00 88 986.8
20260505110550 49 215 0.0 0.0 0.00 0.00 0.00 88 986.7
20260505102043 50 215 0.0 0.0 0.00 0.00 0.00 87 986.9
20260505101644 50 215 0.0 0.0 0.00 0.00 0.00 87 986.9
20260505101042 50 215 0.0 0.0 0.00 0.00 0.00 87 986.9
20260505100542 50 215 0.0 0.0 0.00 0.00 0.00 87 987.0
20260505100058 50 215 0.0 0.0 0.00 0.00 0.00 87 986.9
20260505095544 50 215 0.0 0.0 0.00 0.00 0.00 87 987.0
20260505095044 50 215 0.0 0.0 0.00 0.00 0.00 87 987.0
20260505094543 51 215 0.0 0.0 0.00 0.00 0.00 87 987.2
20260505094039 51 215 0.0 0.0 0.00 0.00 0.00 86 987.1
20260505093537 51 215 0.0 0.0 0.00 0.00 0.00 86 987.1
20260505093037 51 215 0.0 0.0 0.00 0.00 0.00 86 987.2
20260505092539 51 215 0.0 0.0 0.00 0.00 0.00 86 987.1
20260505092036 51 215 0.0 0.0 0.00 0.00 0.00 86 987.1
20260505091544 52 215 0.0 0.0 0.00 0.00 0.00 86 987.2
20260505091034 52 215 0.0 0.0 0.00 0.00 0.00 86 987.2
20260505090533 52 215 0.0 0.0 0.00 0.00 0.00 86 987.3
20260505090037 52 215 0.0 0.0 0.00 0.00 0.00 85 987.4
20260505085532 52 215 0.0 1.0 0.00 0.00 0.00 85 987.4
20260505085034 52 215 0.0 2.0 0.00 0.00 0.00 85 987.5
20260505084531 52 215 0.0 2.0 0.00 0.00 0.00 85 987.4
20260505084029 53 215 0.0 0.0 0.00 0.00 0.00 84 987.6
20260505083528 53 215 0.0 0.0 0.00 0.00 0.00 84 987.6
20260505083039 53 215 0.0 0.0 0.00 0.00 0.00 84 987.7
20260505082530 53 215 0.0 0.0 0.00 0.00 0.00 84 987.7
20260505082026 53 215 0.0 0.0 0.00 0.00 0.00 84 987.7
20260505081530 53 215 0.0 0.0 0.00 0.00 0.00 84 987.7
20260505081024 53 215 0.0 0.0 0.00 0.00 0.00 83 987.7
20260505080526 54 215 0.0 0.0 0.00 0.00 0.00 83 987.8
20260505080034 54 215 0.0 0.0 0.00 0.00 0.00 82 987.9
20260505075523 54 215 0.0 0.0 0.00 0.00 0.00 82 987.9
20260505075027 54 215 0.0 0.0 0.00 0.00 0.00 82 987.9
20260505074523 54 215 0.0 0.0 0.00 0.00 0.00 82 988.0
20260505074027 54 215 0.0 0.0 0.00 0.00 0.00 82 987.9
20260505073524 54 215 0.0 0.0 0.00 0.00 0.00 82 988.0
20260505073025 54 215 0.0 0.0 0.00 0.00 0.00 82 987.9
20260505072522 54 215 0.0 0.0 0.00 0.00 0.00 82 988.0
20260505072021 54 215 0.0 0.0 0.00 0.00 0.00 82 988.0
20260505071533 54 215 0.0 0.0 0.00 0.00 0.00 82 988.0
20260505071022 54 215 0.0 0.0 0.00 0.00 0.00 82 988.0
20260505070520 54 215 0.0 0.0 0.00 0.00 0.00 82 987.9
20260505070020 54 215 0.0 0.0 0.00 0.00 0.00 82 987.9
20260505065520 54 215 0.0 0.0 0.00 0.00 0.00 82 988.0
20260505065020 54 215 0.0 0.0 0.00 0.00 0.00 82 988.0
20260505064518 54 215 0.0 0.0 0.00 0.00 0.00 82 988.0
20260505064019 54 215 0.0 0.0 0.00 0.00 0.00 82 988.0
20260505063519 54 215 0.0 0.0 0.00 0.00 0.00 82 987.9
20260505063029 54 215 0.0 0.0 0.00 0.00 0.00 82 988.0
20260505062519 54 215 0.0 0.0 0.00 0.00 0.00 82 988.1
20260505062021 54 215 0.0 0.0 0.00 0.00 0.00 82 988.1
20260505061521 54 215 0.0 0.0 0.00 0.00 0.00 82 988.1
20260505061022 54 215 0.0 0.0 0.00 0.00 0.00 82 988.1
20260505060517 54 215 0.0 0.0 0.00 0.00 0.00 82 988.1
20260505060017 54 215 0.0 0.0 0.00 0.00 0.00 82 988.0
20260505055518 54 215 0.0 0.0 0.00 0.00 0.00 82 988.0
20260505055018 54 215 0.0 0.0 0.00 0.00 0.00 81 988.0
20260505054516 54 215 0.0 0.0 0.00 0.00 0.00 81 988.1
20260505054018 54 215 0.0 0.0 0.00 0.00 0.00 81 988.2
20260505053517 54 215 0.0 0.0 0.00 0.00 0.00 81 988.1
20260505053017 54 215 0.0 0.0 0.00 0.00 0.00 80 988.0
20260505052517 54 215 0.0 0.0 0.00 0.00 0.00 80 988.0
20260505052019 54 215 0.0 0.0 0.00 0.00 0.00 80 988.0
20260505051532 54 215 0.0 3.0 0.00 0.00 0.00 80 988.1
20260505051016 54 215 0.0 3.0 0.00 0.00 0.00 80 988.0
20260505050520 54 215 1.0 3.0 0.00 0.00 0.00 80 988.1
20260505041524 55 215 0.0 0.0 0.00 0.00 0.00 78 988.2
20260505041014 55 215 0.0 0.0 0.00 0.00 0.00 79 988.2
20260505040514 55 215 0.0 0.0 0.00 0.00 0.00 78 988.2
20260505040015 55 215 0.0 0.0 0.00 0.00 0.00 78 988.2
20260505035517 55 215 0.0 1.0 0.00 0.00 0.00 78 988.1
20260505035014 55 215 0.0 2.0 0.00 0.00 0.00 77 988.1
20260505034514 56 215 0.0 2.0 0.00 0.00 0.00 77 988.1
20260505034014 56 215 0.0 1.0 0.00 0.00 0.00 76 987.9
20260505033514 56 215 0.0 0.0 0.00 0.00 0.00 76 988.1
20260505033014 56 215 0.0 2.0 0.00 0.00 0.00 76 988.0
20260505032517 56 215 0.0 4.0 0.00 0.00 0.00 76 988.1
20260505032012 56 215 2.0 6.0 0.00 0.00 0.00 75 987.9
20260505031524 56 214 1.0 6.0 0.00 0.00 0.00 75 987.9
20260505031012 56 224 3.0 6.0 0.00 0.00 0.00 75 987.8
20260505030512 57 224 4.0 7.0 0.00 0.00 0.00 75 987.7
20260505030012 57 224 3.0 7.0 0.00 0.00 0.00 75 987.7
20260505025514 57 217 4.0 7.0 0.00 0.00 0.00 74 987.6
20260505025012 57 218 4.0 8.0 0.00 0.00 0.00 74 987.6
20260505024511 57 215 4.0 10.0 0.00 0.00 0.00 73 987.5
20260505024012 57 215 4.0 10.0 0.00 0.00 0.00 73 987.6
20260505023511 57 231 4.0 8.0 0.00 0.00 0.00 73 987.6
20260505023015 57 221 4.0 8.0 0.00 0.00 0.00 74 987.5
20260505022511 57 187 4.0 8.0 0.00 0.00 0.00 73 987.6
20260505022012 58 219 4.0 6.0 0.00 0.00 0.00 73 987.6
20260505021510 58 213 3.0 7.0 0.00 0.00 0.00 72 987.7
20260505021010 58 212 3.0 7.0 0.00 0.00 0.00 71 987.6
20260505020510 58 216 3.0 8.0 0.00 0.00 0.00 70 987.5
20260505020010 58 213 3.0 8.0 0.00 0.00 0.00 70 987.7
20260505015510 58 226 4.0 8.0 0.00 0.00 0.00 70 987.7
20260505015013 58 217 4.0 10.0 0.00 0.00 0.00 70 987.8
20260505014515 59 196 5.0 11.0 0.00 0.00 0.00 69 987.8
20260505014010 59 224 6.0 11.0 0.00 0.00 0.00 68 987.8
20260505013509 60 206 5.0 10.0 0.00 0.00 0.00 69 987.8
20260505013010 60 150 4.0 10.0 0.00 0.00 0.00 68 987.9
20260505012609 60 229 4.0 10.0 0.00 0.00 0.00 69 987.9
20260505012008 60 189 6.0 12.0 0.00 0.00 0.00 71 987.9
20260505011512 60 225 5.0 12.0 0.00 0.00 0.00 70 987.8
20260505011008 60 225 6.0 15.0 0.00 0.00 0.00 70 987.8
20260505010508 60 200 8.0 11.0 0.00 0.00 0.00 69 987.7
20260505010014 60 199 7.0 11.0 0.00 0.00 0.00 69 987.7
20260505005508 60 180 7.0 10.0 0.00 0.00 0.00 68 987.7
20260505005008 61 173 7.0 11.0 0.00 0.00 0.00 68 987.6
20260505004508 61 191 4.0 12.0 0.00 0.00 0.00 65 987.6
20260505004008 61 208 6.0 12.0 0.00 0.00 0.00 65 987.6
20260505003507 61 191 5.0 11.0 0.00 0.00 0.00 67 987.7
20260505003007 61 238 6.0 11.0 0.00 0.00 0.00 66 987.7
20260505002607 61 223 7.0 11.0 0.00 0.00 0.00 66 987.6
20260505002006 61 213 6.0 14.0 0.00 0.00 0.00 67 987.6
20260505001506 62 221 7.0 14.0 0.00 0.00 0.00 67 987.5
20260505001005 62 242 6.0 16.0 0.00 0.00 0.00 65 987.4
20260505000505 62 196 8.0 16.0 0.00 0.00 0.00 65 987.3
20260505000010 63 221 5.0 10.0 0.00 0.00 0.00 68 987.4
20260504235505 63 246 6.0 12.0 0.00 0.00 0.00 65 987.4
20260504235006 64 212 6.0 12.0 0.00 0.00 0.00 63 987.6
20260504234505 65 234 6.0 15.0 0.00 0.00 0.00 65 987.5
20260504234005 64 240 6.0 15.0 0.00 0.00 0.00 64 987.6
20260504233505 64 207 8.0 16.0 0.00 0.00 0.00 63 987.6
20260504233005 65 212 5.0 13.0 0.00 0.00 0.00 64 987.6
20260504232505 64 232 6.0 13.0 0.00 0.00 0.00 62 987.6
20260504232004 64 227 6.0 12.0 0.00 0.00 0.00 62 987.5
20260504231504 64 202 6.0 15.0 0.00 0.00 0.00 61 987.7
20260504231006 64 209 5.0 14.0 0.00 0.00 0.00 61 987.6
20260504230507 64 219 7.0 13.0 0.00 0.00 0.00 63 987.7
20260504230007 64 225 8.0 16.0 0.00 0.00 0.00 61 987.5
20260504225503 65 201 8.0 16.0 0.00 0.00 0.00 61 987.5
20260504225004 65 186 8.0 17.0 0.00 0.00 0.00 60 987.5
20260504224508 66 200 7.0 17.0 0.00 0.00 0.00 57 987.5
20260504224003 65 232 8.0 17.0 0.00 0.00 0.00 54 987.5
20260504223503 66 211 7.0 17.0 0.00 0.00 0.00 56 987.5
20260504223003 65 237 9.0 17.0 0.00 0.00 0.00 56 987.6
20260504222503 65 215 8.0 17.0 0.00 0.00 0.00 56 987.5
20260504222002 65 206 8.0 16.0 0.00 0.00 0.00 54 987.6
20260504221502 65 194 9.0 16.0 0.00 0.00 0.00 56 987.7
20260504221002 65 217 8.0 18.0 0.00 0.00 0.00 56 987.7
20260504220502 65 182 10.0 18.0 0.00 0.00 0.00 55 987.8
20260504220002 66 209 10.0 16.0 0.00 0.00 0.00 56 987.8
20260504215505 66 169 10.0 17.0 0.00 0.00 0.00 56 987.9
20260504215000 66 225 7.0 19.0 0.00 0.00 0.00 58 988.0
20260504214601 65 163 9.0 19.0 0.00 0.00 0.00 57 988.1
20260504214104 65 179 9.0 20.0 0.00 0.00 0.00 59 988.1
20260504213600 66 227 11.0 20.0 0.00 0.00 0.00 57 988.1
20260504213104 66 220 8.0 21.0 0.00 0.00 0.00 58 988.2
20260504212602 65 196 10.0 17.0 0.00 0.00 0.00 57 988.2
20260504212101 66 206 9.0 17.0 0.00 0.00 0.00 56 988.1
20260504211602 66 210 6.0 16.0 0.00 0.00 0.00 60 988.2
20260504211058 66 228 9.0 15.0 0.00 0.00 0.00 58 988.3
20260504210600 65 233 7.0 15.0 0.00 0.00 0.00 59 988.4
20260504210104 65 233 7.0 16.0 0.00 0.00 0.00 59 988.4
20260504205559 65 227 8.0 16.0 0.00 0.00 0.00 60 988.3
20260504205059 65 263 8.0 17.0 0.00 0.00 0.00 61 988.4
20260504204602 65 247 9.0 17.0 0.00 0.00 0.00 60 988.4
20260504204102 65 238 8.0 16.0 0.00 0.00 0.00 60 988.5
20260504203558 65 227 8.0 17.0 0.00 0.00 0.00 60 988.5
20260504203058 65 240 6.0 17.0 0.00 0.00 0.00 61 988.5
20260504202559 65 247 7.0 15.0 0.00 0.00 0.00 60 988.5
20260504202100 64 175 7.0 15.0 0.00 0.00 0.00 61 988.4
20260504201607 64 207 9.0 15.0 0.00 0.00 0.00 60 988.4
20260504201057 65 215 9.0 15.0 0.00 0.00 0.00 61 988.4
20260504200557 64 217 11.0 16.0 0.00 0.00 0.00 61 988.4
20260504195556 65 227 11.0 17.0 0.00 0.00 0.00 60 988.3
20260504195056 65 180 9.0 18.0 0.00 0.00 0.00 59 988.3
20260504194556 65 192 9.0 17.0 0.00 0.00 0.00 59 988.2
20260504194056 65 217 6.0 12.0 0.00 0.00 0.00 59 988.3
20260504193555 65 236 8.0 13.0 0.00 0.00 0.00 60 988.3
20260504193055 66 234 6.0 11.0 0.00 0.00 0.00 61 988.4
20260504192555 65 209 7.0 13.0 0.00 0.00 0.00 59 988.4
20260504192053 65 231 8.0 13.0 0.00 0.00 0.00 58 988.4
20260504191607 66 246 7.0 12.0 0.00 0.00 0.00 57 988.4
20260504191053 66 216 6.0 10.0 0.00 0.00 0.00 56 988.4
20260504190556 66 200 5.0 13.0 0.00 0.00 0.00 56 988.4
20260504190054 66 192 8.0 13.0 0.00 0.00 0.00 56 988.4
20260504185551 66 161 6.0 10.0 0.00 0.00 0.00 56 988.4
20260504185051 65 176 7.0 12.0 0.00 0.00 0.00 56 988.5
20260504184551 66 204 7.0 12.0 0.00 0.00 0.00 56 988.6
20260504184051 65 198 5.0 11.0 0.00 0.00 0.00 57 988.6
20260504183550 65 177 6.0 11.0 0.00 0.00 0.00 58 988.5
20260504183050 65 165 5.0 10.0 0.00 0.00 0.00 58 988.5
20260504182549 64 186 2.0 8.0 0.00 0.00 0.00 55 988.7
20260504182048 64 217 5.0 9.0 0.00 0.00 0.00 56 988.7
20260504181548 65 178 4.0 13.0 0.00 0.00 0.00 55 988.7
20260504181048 64 169 7.0 13.0 0.00 0.00 0.00 55 988.7
20260504180546 64 173 6.0 11.0 0.00 0.00 0.00 56 988.7
20260504180045 64 167 6.0 14.0 0.00 0.00 0.00 59 988.8
20260504175545 64 184 5.0 14.0 0.00 0.00 0.00 58 988.7
20260504175045 64 182 4.0 9.0 0.00 0.00 0.00 59 988.8
20260504174544 64 188 5.0 11.0 0.00 0.00 0.00 62 988.7
20260504174044 63 148 4.0 11.0 0.00 0.00 0.00 61 988.7
20260504173545 63 196 4.0 8.0 0.00 0.00 0.00 64 988.5
20260504173043 63 125 4.0 10.0 0.00 0.00 0.00 62 988.6
20260504172545 63 161 5.0 12.0 0.00 0.00 0.00 62 988.5
20260504172043 64 165 4.0 8.0 0.00 0.00 0.00 59 988.6
20260504171541 63 144 3.0 8.0 0.00 0.00 0.00 60 988.6
20260504171040 63 157 3.0 9.0 0.00 0.00 0.00 63 988.5
20260504170539 63 152 2.0 7.0 0.00 0.00 0.00 64 988.7
20260504151015 54 237 1.0 3.0 0.00 0.00 0.00 91 988.4
20260504150515 53 237 1.0 2.0 0.00 0.00 0.00 91 988.3
20260504141112 49 195 0.0 2.0 0.00 0.00 0.00 93 988.2
20260504140511 49 195 0.0 0.0 0.00 0.00 0.00 93 988.1
20260504130600 49 195 1.0 2.0 0.00 0.00 0.00 91 987.7
20260504120119 51 195 0.0 1.0 0.00 0.00 0.00 90 987.3